Regional Weather Roundup
Issued by NWS Raleigh/Durham, NC

Home | Current Version | Previous Version | Text Only | Print | Product List | Glossary On
Versions: 1 2 3 4 5 6 7 8 9 10 11 12 13 14 15 16 17 18 19 20 21 22 23 24 25 26 27 28 29 30 31 32 33 34 35 36 37 38 39 40 41 42 43 44 45 46 47 48 49
000
ASUS42 KRAH 230010
RWRRAH
NORTH CAROLINA WEATHER ROUNDUP
NATIONAL WEATHER SERVICE RALEIGH NC
700 PM EST MON DEC 22 2014

NOTE: "FAIR" INDICATES FEW OR NO CLOUDS BELOW 12,000 FEET WITH NO
SIGNIFICANT WEATHER AND/OR OBSTRUCTIONS TO VISIBILITY.

NCZ001-053-055-056-065-067-230100-
WESTERN NORTH CAROLINA

CITY           SKY/WX    TMP DP  RH WIND       PRES   REMARKS
ASHEVILLE      CLOUDY    40  39  97 S7        29.99R FOG
JEFFERSON      FOG       35  35 100 S3        29.98S VSB 1/4
MORGANTON      CLOUDY    40  37  91 NE3       30.08R
HICKORY        CLOUDY    37  36  96 NE8       30.04R FOG     WCI  31
RUTHERFORDTON  CLOUDY    40  40  97 CALM      30.03R
MOUNT AIRY     CLOUDY    38  36  92 E6        30.08F FOG     WCI  33
BOONE          FOG       35  35 100 E3        29.99R VSB 3/4
$$

NCZ021-022-025-041-071-084-088-230100-
CENTRAL NORTH CAROLINA

CITY           SKY/WX    TMP DP  RH WIND       PRES   REMARKS
CHARLOTTE      CLOUDY    38  35  89 N10       30.05S FOG     WCI  31
GREENSBORO     CLOUDY    35  34  96 NE10G16   30.07R FOG     WCI  27
WINSTON-SALEM  CLOUDY    35  33  92 NE8       30.08R FOG     WCI  29
RALEIGH-DURHAM DRIZZLE   38  35  89 VRB6      30.07F FOG     WCI  33
FORT BRAGG     CLOUDY    39  39 100 N3        30.06R FOG
FAYETTEVILLE   CLOUDY    40  39  97 N12       30.05R FOG     WCI  33
BURLINGTON     CLOUDY    36  33  89 N9        30.08R FOG     WCI  29
LAURINBURG     CLOUDY    40  39  97 NE8       30.06R WCI  34
$$

NCZ011-015-027-028-043-044-047-080-103-230100-
NORTHEASTERN NORTH CAROLINA

CITY           SKY/WX    TMP DP  RH WIND       PRES   REMARKS
ROCKY MT-WILSO CLOUDY    41  39  93 N8        30.06F FOG
GREENVILLE     CLOUDY    43  43 100 NW5       30.07S FOG
WASHINGTON     CLOUDY    45  44  97 NW5       30.04S FOG
ELIZABETH CITY CLOUDY    56  51  84 N10       30.00R
MANTEO         CLOUDY    51  51  99 CALM      29.96S FOG
CAPE HATTERAS  CLOUDY    51  51 100 NW3       29.95F FOG
$$

NCZ078-087-090-091-093-098-101-230100-
SOUTHEASTERN NORTH CAROLINA

CITY           SKY/WX    TMP DP  RH WIND       PRES   REMARKS
LUMBERTON      CLOUDY    43  40  89 N8        30.06R FOG
GOLDSBORO      CLOUDY    42  41  99 N8        30.03S FOG
KINSTON        CLOUDY    43  43 100 NW8       30.06R FOG
KENANSVILLE    CLOUDY    42  41  99 N8        30.03F FOG
NEW BERN       CLOUDY    48  45  89 NW10      30.03F FOG
CHERRY POINT   CLOUDY    49  47  93 NW12      30.02R FOG
BEAUFORT       CLOUDY    50  49  96 NW8       30.01R FOG
JACKSONVILLE   CLOUDY    46  45  96 N7        30.02S FOG
WILMINGTON     CLOUDY    46  45  96 N5        30.02R
$$




USA.gov is the U.S. government's official web portal to all federal, state and local government web resources and services.